owner,sensor,date,latitude,longitude,vertical_datum,sea_water_practical_salinity,qcFlag 
ENP,ioos.station.NOAA.NDBC:GBTF1:1,2014-11-01T00:00:00Z,25.1670,-80.8010,1.5,27.84,1111122 
ENP,ioos.station.NOAA.NDBC:GBTF1:1,2014-11-01T01:00:00Z,25.1670,-80.8010,1.5,27.77,1111122 
ENP,ioos.station.NOAA.NDBC:GBTF1:1,2014-11-01T02:00:00Z,25.1670,-80.8010,1.5,27.12,1111122 
ENP,ioos.station.NOAA.NDBC:GBTF1:1,2014-11-01T04:00:00Z,25.1670,-80.8010,1.5,25.85,1111122 
ENP,ioos.station.NOAA.NDBC:GBTF1:1,2014-11-01T05:00:00Z,25.1670,-80.8010,1.5,25.49,1111122 
ENP,ioos.station.NOAA.NDBC:GBTF1:1,2014-11-01T07:00:00Z,25.1670,-80.8010,1.5,24.86,1111122 
ENP,ioos.station.NOAA.NDBC:GBTF1:1,2014-11-01T08:00:00Z,25.1670,-80.8010,1.5,24.58,1111122 
ENP,ioos.station.NOAA.NDBC:GBTF1:1,2014-11-01T10:00:00Z,25.1670,-80.8010,1.5,24.72,1111122 
ENP,ioos.station.NOAA.NDBC:GBTF1:1,2014-11-01T11:00:00Z,25.1670,-80.8010,1.5,24.44,1111122 
ENP,ioos.station.NOAA.NDBC:GBTF1:1,2014-11-01T12:00:00Z,25.1670,-80.8010,1.5,24.37,1111122 
ENP,ioos.station.NOAA.NDBC:GBTF1:1,2014-11-01T13:00:00Z,25.1670,-80.8010,1.5,24.44,1111122 
ENP,ioos.station.NOAA.NDBC:GBTF1:1,2014-11-01T14:00:00Z,25.1670,-80.8010,1.5,24.65,1111122 
ENP,ioos.station.NOAA.NDBC:GBTF1:1,2014-11-01T15:00:00Z,25.1670,-80.8010,1.5,24.93,1111122 
ENP,ioos.station.NOAA.NDBC:GBTF1:1,2014-11-01T16:00:00Z,25.1670,-80.8010,1.5,25.35,1111122 
ENP,ioos.station.NOAA.NDBC:GBTF1:1,2014-11-01T18:00:00Z,25.1670,-80.8010,1.5,24.79,1111122 
ENP,ioos.station.NOAA.NDBC:GBTF1:1,2014-11-01T19:00:00Z,25.1670,-80.8010,1.5,24.44,1111122 
ENP,ioos.station.NOAA.NDBC:GBTF1:1,2014-11-01T20:00:00Z,25.1670,-80.8010,1.5,24.16,1111122 
ENP,ioos.station.NOAA.NDBC:GBTF1:1,2014-11-01T22:00:00Z,25.1670,-80.8010,1.5,23.53,1111122 
ENP,ioos.station.NOAA.NDBC:GBTF1:1,2014-11-01T23:00:00Z,25.1670,-80.8010,1.5,23.18,1111122 
ENP,ioos.station.NOAA.NDBC:GBTF1:1,2014-11-02T00:00:00Z,25.1670,-80.8010,1.5,22.83,1111122 
ENP,ioos.station.NOAA.NDBC:GBTF1:1,2014-11-02T02:00:00Z,25.1670,-80.8010,1.5,21.99,1111122 
ENP,ioos.station.NOAA.NDBC:GBTF1:1,2014-11-02T03:00:00Z,25.1670,-80.8010,1.5,21.65,1111122 
ENP,ioos.station.NOAA.NDBC:GBTF1:1,2014-11-02T05:00:00Z,25.1670,-80.8010,1.5,21.44,1111122 
ENP,ioos.station.NOAA.NDBC:GBTF1:1,2014-11-02T06:00:00Z,25.1670,-80.8010,1.5,21.23,1111122 
ENP,ioos.station.NOAA.NDBC:GBTF1:1,2014-11-02T07:00:00Z,25.1670,-80.8010,1.5,21.03,1111122 
ENP,ioos.station.NOAA.NDBC:GBTF1:1,2014-11-02T09:00:00Z,25.1670,-80.8010,1.5,21.44,1111122 
ENP,ioos.station.NOAA.NDBC:GBTF1:1,2014-11-02T10:00:00Z,25.1670,-80.8010,1.5,21.65,1111122 
ENP,ioos.station.NOAA.NDBC:GBTF1:1,2014-11-02T11:00:00Z,25.1670,-80.8010,1.5,22.06,1111122 
ENP,ioos.station.NOAA.NDBC:GBTF1:1,2014-11-02T13:00:00Z,25.1670,-80.8010,1.5,22.2,1111122 
ENP,ioos.station.NOAA.NDBC:GBTF1:1,2014-11-02T14:00:00Z,25.1670,-80.8010,1.5,22.13,1111122 
ENP,ioos.station.NOAA.NDBC:GBTF1:1,2014-11-02T15:00:00Z,25.1670,-80.8010,1.5,21.86,1111122 
ENP,ioos.station.NOAA.NDBC:GBTF1:1,2014-11-02T16:00:00Z,25.1670,-80.8010,1.5,21.16,1111122 
ENP,ioos.station.NOAA.NDBC:GBTF1:1,2014-11-02T17:00:00Z,25.1670,-80.8010,1.5,20.61,1111122 
ENP,ioos.station.NOAA.NDBC:GBTF1:1,2014-11-02T18:00:00Z,25.1670,-80.8010,1.5,20.34,1111122 
ENP,ioos.station.NOAA.NDBC:GBTF1:1,2014-11-02T19:00:00Z,25.1670,-80.8010,1.5,20.34,1111122 
ENP,ioos.station.NOAA.NDBC:GBTF1:1,2014-11-02T21:00:00Z,25.1670,-80.8010,1.5,20.48,1111122 
ENP,ioos.station.NOAA.NDBC:GBTF1:1,2014-11-02T22:00:00Z,25.1670,-80.8010,1.5,20.61,1111122 
ENP,ioos.station.NOAA.NDBC:GBTF1:1,2014-11-03T00:00:00Z,25.1670,-80.8010,1.5,20.89,1111122 
ENP,ioos.station.NOAA.NDBC:GBTF1:1,2014-11-03T01:00:00Z,25.1670,-80.8010,1.5,20.89,1111122 
ENP,ioos.station.NOAA.NDBC:GBTF1:1,2014-11-03T02:00:00Z,25.1670,-80.8010,1.5,20.82,1111122 
ENP,ioos.station.NOAA.NDBC:GBTF1:1,2014-11-03T03:00:00Z,25.1670,-80.8010,1.5,20.54,1111122 
ENP,ioos.station.NOAA.NDBC:GBTF1:1,2014-11-03T05:00:00Z,25.1670,-80.8010,1.5,20.75,1111122 
ENP,ioos.station.NOAA.NDBC:GBTF1:1,2014-11-03T06:00:00Z,25.1670,-80.8010,1.5,20.89,1111122 
ENP,ioos.station.NOAA.NDBC:GBTF1:1,2014-11-03T08:00:00Z,25.1670,-80.8010,1.5,21.16,1111122 
ENP,ioos.station.NOAA.NDBC:GBTF1:1,2014-11-03T10:00:00Z,25.1670,-80.8010,1.5,19.52,1111122 
ENP,ioos.station.NOAA.NDBC:GBTF1:1,2014-11-03T11:00:00Z,25.1670,-80.8010,1.5,18.9,1111122 
ENP,ioos.station.NOAA.NDBC:GBTF1:1,2014-11-03T13:00:00Z,25.1670,-80.8010,1.5,18.76,1111122 
ENP,ioos.station.NOAA.NDBC:GBTF1:1,2014-11-03T14:00:00Z,25.1670,-80.8010,1.5,18.76,1111122 
ENP,ioos.station.NOAA.NDBC:GBTF1:1,2014-11-03T15:00:00Z,25.1670,-80.8010,1.5,18.83,1111122 
ENP,ioos.station.NOAA.NDBC:GBTF1:1,2014-11-03T16:00:00Z,25.1670,-80.8010,1.5,18.76,1111122 
ENP,ioos.station.NOAA.NDBC:GBTF1:1,2014-11-03T17:00:00Z,25.1670,-80.8010,1.5,18.76,1111122 
ENP,ioos.station.NOAA.NDBC:GBTF1:1,2014-11-03T18:00:00Z,25.1670,-80.8010,1.5,18.7,1111122 
ENP,ioos.station.NOAA.NDBC:GBTF1:1,2014-11-03T19:00:00Z,25.1670,-80.8010,1.5,18.63,1111122 
ENP,ioos.station.NOAA.NDBC:GBTF1:1,2014-11-03T21:00:00Z,25.1670,-80.8010,1.5,18.63,1111122 
ENP,ioos.station.NOAA.NDBC:GBTF1:1,2014-11-03T22:00:00Z,25.1670,-80.8010,1.5,18.76,1111122 
ENP,ioos.station.NOAA.NDBC:GBTF1:1,2014-11-03T23:00:00Z,25.1670,-80.8010,1.5,18.76,1111122 
ENP,ioos.station.NOAA.NDBC:GBTF1:1,2014-11-04T01:00:00Z,25.1670,-80.8010,1.5,18.76,1111122 
ENP,ioos.station.NOAA.NDBC:GBTF1:1,2014-11-04T02:00:00Z,25.1670,-80.8010,1.5,18.83,1111122 
ENP,ioos.station.NOAA.NDBC:GBTF1:1,2014-11-04T03:00:00Z,25.1670,-80.8010,1.5,18.9,1111122 
ENP,ioos.station.NOAA.NDBC:GBTF1:1,2014-11-04T05:00:00Z,25.1670,-80.8010,1.5,18.9,1111122 
ENP,ioos.station.NOAA.NDBC:GBTF1:1,2014-11-04T06:00:00Z,25.1670,-80.8010,1.5,18.76,1111122 
ENP,ioos.station.NOAA.NDBC:GBTF1:1,2014-11-04T08:00:00Z,25.1670,-80.8010,1.5,18.83,1111122 
ENP,ioos.station.NOAA.NDBC:GBTF1:1,2014-11-04T09:00:00Z,25.1670,-80.8010,1.5,18.83,1111122 
ENP,ioos.station.NOAA.NDBC:GBTF1:1,2014-11-04T10:00:00Z,25.1670,-80.8010,1.5,18.83,1111122 
ENP,ioos.station.NOAA.NDBC:GBTF1:1,2014-11-04T11:00:00Z,25.1670,-80.8010,1.5,18.83,1111122 
ENP,ioos.station.NOAA.NDBC:GBTF1:1,2014-11-04T13:00:00Z,25.1670,-80.8010,1.5,18.83,1111122 
ENP,ioos.station.NOAA.NDBC:GBTF1:1,2014-11-04T14:00:00Z,25.1670,-80.8010,1.5,18.9,1111122 
ENP,ioos.station.NOAA.NDBC:GBTF1:1,2014-11-04T16:00:00Z,25.1670,-80.8010,1.5,18.63,1111122 
ENP,ioos.station.NOAA.NDBC:GBTF1:1,2014-11-04T18:00:00Z,25.1670,-80.8010,1.5,18.56,1111122 
ENP,ioos.station.NOAA.NDBC:GBTF1:1,2014-11-04T19:00:00Z,25.1670,-80.8010,1.5,18.56,1111122 
ENP,ioos.station.NOAA.NDBC:GBTF1:1,2014-11-04T21:00:00Z,25.1670,-80.8010,1.5,18.83,1111122 
ENP,ioos.station.NOAA.NDBC:GBTF1:1,2014-11-04T22:00:00Z,25.1670,-80.8010,1.5,18.97,1111122 
ENP,ioos.station.NOAA.NDBC:GBTF1:1,2014-11-04T23:00:00Z,25.1670,-80.8010,1.5,19.11,1111122 
ENP,ioos.station.NOAA.NDBC:GBTF1:1,2014-11-05T01:00:00Z,25.1670,-80.8010,1.5,19.86,1111122 
ENP,ioos.station.NOAA.NDBC:GBTF1:1,2014-11-05T02:00:00Z,25.1670,-80.8010,1.5,20.13,1111122 
ENP,ioos.station.NOAA.NDBC:GBTF1:1,2014-11-05T03:00:00Z,25.1670,-80.8010,1.5,20.41,1111122 
ENP,ioos.station.NOAA.NDBC:GBTF1:1,2014-11-05T05:00:00Z,25.1670,-80.8010,1.5,21.03,1111122 
ENP,ioos.station.NOAA.NDBC:GBTF1:1,2014-11-05T06:00:00Z,25.1670,-80.8010,1.5,21.3,1111122 
ENP,ioos.station.NOAA.NDBC:GBTF1:1,2014-11-05T07:00:00Z,25.1670,-80.8010,1.5,21.58,1111122 
ENP,ioos.station.NOAA.NDBC:GBTF1:1,2014-11-05T09:00:00Z,25.1670,-80.8010,1.5,21.93,1111122 
ENP,ioos.station.NOAA.NDBC:GBTF1:1,2014-11-05T10:00:00Z,25.1670,-80.8010,1.5,22.41,1111122 
ENP,ioos.station.NOAA.NDBC:GBTF1:1,2014-11-05T11:00:00Z,25.1670,-80.8010,1.5,22.76,1111122 
ENP,ioos.station.NOAA.NDBC:GBTF1:1,2014-11-05T13:00:00Z,25.1670,-80.8010,1.5,23.18,1111122 
ENP,ioos.station.NOAA.NDBC:GBTF1:1,2014-11-05T14:00:00Z,25.1670,-80.8010,1.5,23.25,1111122 
ENP,ioos.station.NOAA.NDBC:GBTF1:1,2014-11-05T15:00:00Z,25.1670,-80.8010,1.5,23.25,1111122 
ENP,ioos.station.NOAA.NDBC:GBTF1:1,2014-11-05T16:00:00Z,25.1670,-80.8010,1.5,23.32,1111122 
ENP,ioos.station.NOAA.NDBC:GBTF1:1,2014-11-05T17:00:00Z,25.1670,-80.8010,1.5,23.25,1111122 
ENP,ioos.station.NOAA.NDBC:GBTF1:1,2014-11-05T19:00:00Z,25.1670,-80.8010,1.5,23.11,1111122 
ENP,ioos.station.NOAA.NDBC:GBTF1:1,2014-11-05T21:00:00Z,25.1670,-80.8010,1.5,23.81,1111122 
ENP,ioos.station.NOAA.NDBC:GBTF1:1,2014-11-05T22:00:00Z,25.1670,-80.8010,1.5,24.37,1111122 
ENP,ioos.station.NOAA.NDBC:GBTF1:1,2014-11-05T23:00:00Z,25.1670,-80.8010,1.5,25.0,1111122 
ENP,ioos.station.NOAA.NDBC:GBTF1:1,2014-11-06T00:00:00Z,25.1670,-80.8010,1.5,25.56,1111122 
ENP,ioos.station.NOAA.NDBC:GBTF1:1,2014-11-06T01:00:00Z,25.1670,-80.8010,1.5,25.78,1111122 
ENP,ioos.station.NOAA.NDBC:GBTF1:1,2014-11-06T02:00:00Z,25.1670,-80.8010,1.5,25.85,1111122 
ENP,ioos.station.NOAA.NDBC:GBTF1:1,2014-11-06T03:00:00Z,25.1670,-80.8010,1.5,26.06,1111122 
ENP,ioos.station.NOAA.NDBC:GBTF1:1,2014-11-06T05:00:00Z,25.1670,-80.8010,1.5,26.63,1111122 
ENP,ioos.station.NOAA.NDBC:GBTF1:1,2014-11-06T06:00:00Z,25.1670,-80.8010,1.5,26.84,1111122 
ENP,ioos.station.NOAA.NDBC:GBTF1:1,2014-11-06T07:00:00Z,25.1670,-80.8010,1.5,26.91,1111122 
ENP,ioos.station.NOAA.NDBC:GBTF1:1,2014-11-06T09:00:00Z,25.1670,-80.8010,1.5,27.48,1111122 
ENP,ioos.station.NOAA.NDBC:GBTF1:1,2014-11-06T10:00:00Z,25.1670,-80.8010,1.5,28.05,1111122 
ENP,ioos.station.NOAA.NDBC:GBTF1:1,2014-11-06T11:00:00Z,25.1670,-80.8010,1.5,28.62,1111122 
ENP,ioos.station.NOAA.NDBC:GBTF1:1,2014-11-06T12:00:00Z,25.1670,-80.8010,1.5,28.91,1111122 
ENP,ioos.station.NOAA.NDBC:GBTF1:1,2014-11-06T13:00:00Z,25.1670,-80.8010,1.5,28.91,1111122 
ENP,ioos.station.NOAA.NDBC:GBTF1:1,2014-11-06T14:00:00Z,25.1670,-80.8010,1.5,28.91,1111122 
ENP,ioos.station.NOAA.NDBC:GBTF1:1,2014-11-06T15:00:00Z,25.1670,-80.8010,1.5,28.91,1111122 
ENP,ioos.station.NOAA.NDBC:GBTF1:1,2014-11-06T17:00:00Z,25.1670,-80.8010,1.5,28.55,1111122 
ENP,ioos.station.NOAA.NDBC:GBTF1:1,2014-11-06T18:00:00Z,25.1670,-80.8010,1.5,28.48,1111122 
ENP,ioos.station.NOAA.NDBC:GBTF1:1,2014-11-06T19:00:00Z,25.1670,-80.8010,1.5,28.41,1111122 
ENP,ioos.station.NOAA.NDBC:GBTF1:1,2014-11-06T21:00:00Z,25.1670,-80.8010,1.5,28.27,1111122 
ENP,ioos.station.NOAA.NDBC:GBTF1:1,2014-11-06T22:00:00Z,25.1670,-80.8010,1.5,28.27,1111122 
ENP,ioos.station.NOAA.NDBC:GBTF1:1,2014-11-06T23:00:00Z,25.1670,-80.8010,1.5,28.41,1111122 
ENP,ioos.station.NOAA.NDBC:GBTF1:1,2014-11-07T01:00:00Z,25.1670,-80.8010,1.5,28.7,1111122 
ENP,ioos.station.NOAA.NDBC:GBTF1:1,2014-11-07T02:00:00Z,25.1670,-80.8010,1.5,28.77,1111122 
ENP,ioos.station.NOAA.NDBC:GBTF1:1,2014-11-07T03:00:00Z,25.1670,-80.8010,1.5,28.62,1111122 
ENP,ioos.station.NOAA.NDBC:GBTF1:1,2014-11-07T05:00:00Z,25.1670,-80.8010,1.5,28.84,1111122 
ENP,ioos.station.NOAA.NDBC:GBTF1:1,2014-11-07T06:00:00Z,25.1670,-80.8010,1.5,29.27,1111122 
ENP,ioos.station.NOAA.NDBC:GBTF1:1,2014-11-07T07:00:00Z,25.1670,-80.8010,1.5,29.56,1111122 
ENP,ioos.station.NOAA.NDBC:GBTF1:1,2014-11-07T09:00:00Z,25.1670,-80.8010,1.5,29.63,1111122 
ENP,ioos.station.NOAA.NDBC:GBTF1:1,2014-11-07T10:00:00Z,25.1670,-80.8010,1.5,29.85,1111122 
ENP,ioos.station.NOAA.NDBC:GBTF1:1,2014-11-07T11:00:00Z,25.1670,-80.8010,1.5,30.13,1111122 
ENP,ioos.station.NOAA.NDBC:GBTF1:1,2014-11-07T12:00:00Z,25.1670,-80.8010,1.5,30.79,1111122 
ENP,ioos.station.NOAA.NDBC:GBTF1:1,2014-11-07T13:00:00Z,25.1670,-80.8010,1.5,31.0,1111122 
ENP,ioos.station.NOAA.NDBC:GBTF1:1,2014-11-07T14:00:00Z,25.1670,-80.8010,1.5,30.64,1111122 
ENP,ioos.station.NOAA.NDBC:GBTF1:1,2014-11-07T16:00:00Z,25.1670,-80.8010,1.5,30.13,1111122 
ENP,ioos.station.NOAA.NDBC:GBTF1:1,2014-11-07T17:00:00Z,25.1670,-80.8010,1.5,30.06,1111122 
ENP,ioos.station.NOAA.NDBC:GBTF1:1,2014-11-07T18:00:00Z,25.1670,-80.8010,1.5,29.99,1111122 
ENP,ioos.station.NOAA.NDBC:GBTF1:1,2014-11-07T19:00:00Z,25.1670,-80.8010,1.5,29.92,1111122 
ENP,ioos.station.NOAA.NDBC:GBTF1:1,2014-11-07T21:00:00Z,25.1670,-80.8010,1.5,29.85,1111122 
ENP,ioos.station.NOAA.NDBC:GBTF1:1,2014-11-07T22:00:00Z,25.1670,-80.8010,1.5,28.84,1111122 
ENP,ioos.station.NOAA.NDBC:GBTF1:1,2014-11-07T23:00:00Z,25.1670,-80.8010,1.5,28.62,1111122 
ENP,ioos.station.NOAA.NDBC:GBTF1:1,2014-11-08T01:00:00Z,25.1670,-80.8010,1.5,29.05,1111122 
ENP,ioos.station.NOAA.NDBC:GBTF1:1,2014-11-08T02:00:00Z,25.1670,-80.8010,1.5,29.56,1111122 
ENP,ioos.station.NOAA.NDBC:GBTF1:1,2014-11-08T03:00:00Z,25.1670,-80.8010,1.5,29.85,1111122 
ENP,ioos.station.NOAA.NDBC:GBTF1:1,2014-11-08T05:00:00Z,25.1670,-80.8010,1.5,29.92,1111122 
ENP,ioos.station.NOAA.NDBC:GBTF1:1,2014-11-08T07:00:00Z,25.1670,-80.8010,1.5,30.42,1111122 
ENP,ioos.station.NOAA.NDBC:GBTF1:1,2014-11-08T09:00:00Z,25.1670,-80.8010,1.5,30.64,1111122 
ENP,ioos.station.NOAA.NDBC:GBTF1:1,2014-11-08T10:00:00Z,25.1670,-80.8010,1.5,30.93,1111122 
ENP,ioos.station.NOAA.NDBC:GBTF1:1,2014-11-08T11:00:00Z,25.1670,-80.8010,1.5,31.51,1111122 
ENP,ioos.station.NOAA.NDBC:GBTF1:1,2014-11-08T12:00:00Z,25.1670,-80.8010,1.5,32.02,1111122 
ENP,ioos.station.NOAA.NDBC:GBTF1:1,2014-11-08T13:00:00Z,25.1670,-80.8010,1.5,32.31,1111122 
ENP,ioos.station.NOAA.NDBC:GBTF1:1,2014-11-08T14:00:00Z,25.1670,-80.8010,1.5,32.53,1111122 
ENP,ioos.station.NOAA.NDBC:GBTF1:1,2014-11-08T16:00:00Z,25.1670,-80.8010,1.5,32.38,1111122 
ENP,ioos.station.NOAA.NDBC:GBTF1:1,2014-11-08T17:00:00Z,25.1670,-80.8010,1.5,32.38,1111122 
ENP,ioos.station.NOAA.NDBC:GBTF1:1,2014-11-08T19:00:00Z,25.1670,-80.8010,1.5,31.95,1111122 
ENP,ioos.station.NOAA.NDBC:GBTF1:1,2014-11-08T20:00:00Z,25.1670,-80.8010,1.5,31.8,1111122 
ENP,ioos.station.NOAA.NDBC:GBTF1:1,2014-11-08T21:00:00Z,25.1670,-80.8010,1.5,31.51,1111122 
ENP,ioos.station.NOAA.NDBC:GBTF1:1,2014-11-08T22:00:00Z,25.1670,-80.8010,1.5,31.51,1111122 
ENP,ioos.station.NOAA.NDBC:GBTF1:1,2014-11-09T00:00:00Z,25.1670,-80.8010,1.5,31.44,1111122 
ENP,ioos.station.NOAA.NDBC:GBTF1:1,2014-11-09T01:00:00Z,25.1670,-80.8010,1.5,31.58,1111122 
ENP,ioos.station.NOAA.NDBC:GBTF1:1,2014-11-09T02:00:00Z,25.1670,-80.8010,1.5,31.73,1111122 
ENP,ioos.station.NOAA.NDBC:GBTF1:1,2014-11-09T03:00:00Z,25.1670,-80.8010,1.5,31.66,1111122 
ENP,ioos.station.NOAA.NDBC:GBTF1:1,2014-11-09T05:00:00Z,25.1670,-80.8010,1.5,32.02,1111122 
ENP,ioos.station.NOAA.NDBC:GBTF1:1,2014-11-09T06:00:00Z,25.1670,-80.8010,1.5,32.02,1111122 
ENP,ioos.station.NOAA.NDBC:GBTF1:1,2014-11-09T07:00:00Z,25.1670,-80.8010,1.5,32.09,1111122 
ENP,ioos.station.NOAA.NDBC:GBTF1:1,2014-11-09T09:00:00Z,25.1670,-80.8010,1.5,32.9,1111122 
ENP,ioos.station.NOAA.NDBC:GBTF1:1,2014-11-09T10:00:00Z,25.1670,-80.8010,1.5,33.33,1111122 
ENP,ioos.station.NOAA.NDBC:GBTF1:1,2014-11-09T11:00:00Z,25.1670,-80.8010,1.5,34.07,1111122 
ENP,ioos.station.NOAA.NDBC:GBTF1:1,2014-11-09T14:00:00Z,25.1670,-80.8010,1.5,35.54,1111122 
ENP,ioos.station.NOAA.NDBC:GBTF1:1,2014-11-09T15:00:00Z,25.1670,-80.8010,1.5,35.4,1111122 
ENP,ioos.station.NOAA.NDBC:GBTF1:1,2014-11-09T17:00:00Z,25.1670,-80.8010,1.5,35.03,1111122 
ENP,ioos.station.NOAA.NDBC:GBTF1:1,2014-11-09T18:00:00Z,25.1670,-80.8010,1.5,35.25,1111122 
ENP,ioos.station.NOAA.NDBC:GBTF1:1,2014-11-09T19:00:00Z,25.1670,-80.8010,1.5,35.17,1111122 
ENP,ioos.station.NOAA.NDBC:GBTF1:1,2014-11-09T20:00:00Z,25.1670,-80.8010,1.5,34.51,1111122 
ENP,ioos.station.NOAA.NDBC:GBTF1:1,2014-11-09T21:00:00Z,25.1670,-80.8010,1.5,34.07,1111122 
ENP,ioos.station.NOAA.NDBC:GBTF1:1,2014-11-09T22:00:00Z,25.1670,-80.8010,1.5,33.7,1111122 
ENP,ioos.station.NOAA.NDBC:GBTF1:1,2014-11-10T00:00:00Z,25.1670,-80.8010,1.5,33.12,1111122 
ENP,ioos.station.NOAA.NDBC:GBTF1:1,2014-11-10T01:00:00Z,25.1670,-80.8010,1.5,33.12,1111122 
ENP,ioos.station.NOAA.NDBC:GBTF1:1,2014-11-10T02:00:00Z,25.1670,-80.8010,1.5,33.12,1111122 
ENP,ioos.station.NOAA.NDBC:GBTF1:1,2014-11-10T03:00:00Z,25.1670,-80.8010,1.5,33.19,1111122 
ENP,ioos.station.NOAA.NDBC:GBTF1:1,2014-11-10T04:00:00Z,25.1670,-80.8010,1.5,33.19,1111122 
ENP,ioos.station.NOAA.NDBC:GBTF1:1,2014-11-10T06:00:00Z,25.1670,-80.8010,1.5,32.97,1111122 
ENP,ioos.station.NOAA.NDBC:GBTF1:1,2014-11-10T08:00:00Z,25.1670,-80.8010,1.5,32.46,1111122 
ENP,ioos.station.NOAA.NDBC:GBTF1:1,2014-11-10T09:00:00Z,25.1670,-80.8010,1.5,32.31,1111122 
ENP,ioos.station.NOAA.NDBC:GBTF1:1,2014-11-10T10:00:00Z,25.1670,-80.8010,1.5,32.17,1111122 
ENP,ioos.station.NOAA.NDBC:GBTF1:1,2014-11-10T11:00:00Z,25.1670,-80.8010,1.5,32.24,1111122 
ENP,ioos.station.NOAA.NDBC:GBTF1:1,2014-11-10T12:00:00Z,25.1670,-80.8010,1.5,32.17,1111122 
ENP,ioos.station.NOAA.NDBC:GBTF1:1,2014-11-10T13:00:00Z,25.1670,-80.8010,1.5,32.46,1111122 
ENP,ioos.station.NOAA.NDBC:GBTF1:1,2014-11-10T14:00:00Z,25.1670,-80.8010,1.5,32.17,1111122 
ENP,ioos.station.NOAA.NDBC:GBTF1:1,2014-11-10T16:00:00Z,25.1670,-80.8010,1.5,32.17,1111122 
ENP,ioos.station.NOAA.NDBC:GBTF1:1,2014-11-10T17:00:00Z,25.1670,-80.8010,1.5,32.02,1111122 
ENP,ioos.station.NOAA.NDBC:GBTF1:1,2014-11-10T18:00:00Z,25.1670,-80.8010,1.5,31.87,1111122 
ENP,ioos.station.NOAA.NDBC:GBTF1:1,2014-11-10T20:00:00Z,25.1670,-80.8010,1.5,31.8,1111122 
ENP,ioos.station.NOAA.NDBC:GBTF1:1,2014-11-10T21:00:00Z,25.1670,-80.8010,1.5,31.51,1111122 
ENP,ioos.station.NOAA.NDBC:GBTF1:1,2014-11-10T22:00:00Z,25.1670,-80.8010,1.5,31.58,1111122 
ENP,ioos.station.NOAA.NDBC:GBTF1:1,2014-11-10T23:00:00Z,25.1670,-80.8010,1.5,31.44,1111122 
ENP,ioos.station.NOAA.NDBC:GBTF1:1,2014-11-11T01:00:00Z,25.1670,-80.8010,1.5,31.44,1111122 
ENP,ioos.station.NOAA.NDBC:GBTF1:1,2014-11-11T02:00:00Z,25.1670,-80.8010,1.5,31.51,1111122 
ENP,ioos.station.NOAA.NDBC:GBTF1:1,2014-11-11T03:00:00Z,25.1670,-80.8010,1.5,31.66,1111122 
ENP,ioos.station.NOAA.NDBC:GBTF1:1,2014-11-11T05:00:00Z,25.1670,-80.8010,1.5,31.73,1111122 
ENP,ioos.station.NOAA.NDBC:GBTF1:1,2014-11-11T06:00:00Z,25.1670,-80.8010,1.5,31.51,1111122 
ENP,ioos.station.NOAA.NDBC:GBTF1:1,2014-11-11T07:00:00Z,25.1670,-80.8010,1.5,31.51,1111122 
ENP,ioos.station.NOAA.NDBC:GBTF1:1,2014-11-11T09:00:00Z,25.1670,-80.8010,1.5,31.44,1111122 
ENP,ioos.station.NOAA.NDBC:GBTF1:1,2014-11-11T10:00:00Z,25.1670,-80.8010,1.5,31.44,1111122 
ENP,ioos.station.NOAA.NDBC:GBTF1:1,2014-11-11T11:00:00Z,25.1670,-80.8010,1.5,31.44,1111122 
ENP,ioos.station.NOAA.NDBC:GBTF1:1,2014-11-11T13:00:00Z,25.1670,-80.8010,1.5,30.64,1111122 
ENP,ioos.station.NOAA.NDBC:GBTF1:1,2014-11-11T14:00:00Z,25.1670,-80.8010,1.5,30.79,1111122 
ENP,ioos.station.NOAA.NDBC:GBTF1:1,2014-11-11T15:00:00Z,25.1670,-80.8010,1.5,31.0,1111122 
ENP,ioos.station.NOAA.NDBC:GBTF1:1,2014-11-11T16:00:00Z,25.1670,-80.8010,1.5,31.15,1111122 
ENP,ioos.station.NOAA.NDBC:GBTF1:1,2014-11-11T17:00:00Z,25.1670,-80.8010,1.5,31.15,1111122 
ENP,ioos.station.NOAA.NDBC:GBTF1:1,2014-11-11T18:00:00Z,25.1670,-80.8010,1.5,30.86,1111122 
ENP,ioos.station.NOAA.NDBC:GBTF1:1,2014-11-11T19:00:00Z,25.1670,-80.8010,1.5,30.79,1111122 
ENP,ioos.station.NOAA.NDBC:GBTF1:1,2014-11-11T20:00:00Z,25.1670,-80.8010,1.5,30.13,1111122 
ENP,ioos.station.NOAA.NDBC:GBTF1:1,2014-11-11T21:00:00Z,25.1670,-80.8010,1.5,29.27,1111122 
ENP,ioos.station.NOAA.NDBC:GBTF1:1,2014-11-11T22:00:00Z,25.1670,-80.8010,1.5,28.91,1111122 
ENP,ioos.station.NOAA.NDBC:GBTF1:1,2014-11-11T23:00:00Z,25.1670,-80.8010,1.5,28.48,1111122 
ENP,ioos.station.NOAA.NDBC:GBTF1:1,2014-11-12T20:00:00Z,25.1670,-80.8010,1.5,29.99,1111122 
ENP,ioos.station.NOAA.NDBC:GBTF1:1,2014-11-12T21:00:00Z,25.1670,-80.8010,1.5,29.7,1111122 
ENP,ioos.station.NOAA.NDBC:GBTF1:1,2014-11-12T22:00:00Z,25.1670,-80.8010,1.5,30.06,1111122 
ENP,ioos.station.NOAA.NDBC:GBTF1:1,2014-11-13T00:00:00Z,25.1670,-80.8010,1.5,30.42,1111122 
ENP,ioos.station.NOAA.NDBC:GBTF1:1,2014-11-13T01:00:00Z,25.1670,-80.8010,1.5,30.79,1111122 
ENP,ioos.station.NOAA.NDBC:GBTF1:1,2014-11-13T02:00:00Z,25.1670,-80.8010,1.5,31.29,1111122 
ENP,ioos.station.NOAA.NDBC:GBTF1:1,2014-11-13T03:00:00Z,25.1670,-80.8010,1.5,31.8,1111122 
ENP,ioos.station.NOAA.NDBC:GBTF1:1,2014-11-13T05:00:00Z,25.1670,-80.8010,1.5,32.38,1111122 
ENP,ioos.station.NOAA.NDBC:GBTF1:1,2014-11-13T06:00:00Z,25.1670,-80.8010,1.5,32.46,1111122 
ENP,ioos.station.NOAA.NDBC:GBTF1:1,2014-11-13T07:00:00Z,25.1670,-80.8010,1.5,32.53,1111122 
ENP,ioos.station.NOAA.NDBC:GBTF1:1,2014-11-13T08:00:00Z,25.1670,-80.8010,1.5,32.68,1111122 
ENP,ioos.station.NOAA.NDBC:GBTF1:1,2014-11-13T09:00:00Z,25.1670,-80.8010,1.5,32.75,1111122 
ENP,ioos.station.NOAA.NDBC:GBTF1:1,2014-11-13T10:00:00Z,25.1670,-80.8010,1.5,32.82,1111122 
ENP,ioos.station.NOAA.NDBC:GBTF1:1,2014-11-13T11:00:00Z,25.1670,-80.8010,1.5,32.82,1111122 
ENP,ioos.station.NOAA.NDBC:GBTF1:1,2014-11-13T12:00:00Z,25.1670,-80.8010,1.5,32.82,1111122 
ENP,ioos.station.NOAA.NDBC:GBTF1:1,2014-11-13T13:00:00Z,25.1670,-80.8010,1.5,33.12,1111122 
ENP,ioos.station.NOAA.NDBC:GBTF1:1,2014-11-13T14:00:00Z,25.1670,-80.8010,1.5,33.19,1111122 
ENP,ioos.station.NOAA.NDBC:GBTF1:1,2014-11-13T16:00:00Z,25.1670,-80.8010,1.5,33.33,1111122 
ENP,ioos.station.NOAA.NDBC:GBTF1:1,2014-11-13T17:00:00Z,25.1670,-80.8010,1.5,33.33,1111122 
ENP,ioos.station.NOAA.NDBC:GBTF1:1,2014-11-13T18:00:00Z,25.1670,-80.8010,1.5,33.48,1111122 
ENP,ioos.station.NOAA.NDBC:GBTF1:1,2014-11-13T19:00:00Z,25.1670,-80.8010,1.5,33.63,1111122 
ENP,ioos.station.NOAA.NDBC:GBTF1:1,2014-11-13T22:00:00Z,25.1670,-80.8010,1.5,33.55,1111122 
ENP,ioos.station.NOAA.NDBC:GBTF1:1,2014-11-13T23:00:00Z,25.1670,-80.8010,1.5,33.63,1111122 
ENP,ioos.station.NOAA.NDBC:GBTF1:1,2014-11-14T00:00:00Z,25.1670,-80.8010,1.5,33.63,1111122 
ENP,ioos.station.NOAA.NDBC:GBTF1:1,2014-11-14T01:00:00Z,25.1670,-80.8010,1.5,33.77,1111122 
ENP,ioos.station.NOAA.NDBC:GBTF1:1,2014-11-14T02:00:00Z,25.1670,-80.8010,1.5,33.77,1111122 
ENP,ioos.station.NOAA.NDBC:GBTF1:1,2014-11-14T03:00:00Z,25.1670,-80.8010,1.5,33.85,1111122 
ENP,ioos.station.NOAA.NDBC:GBTF1:1,2014-11-14T05:00:00Z,25.1670,-80.8010,1.5,34.14,1111122 
ENP,ioos.station.NOAA.NDBC:GBTF1:1,2014-11-14T06:00:00Z,25.1670,-80.8010,1.5,34.14,1111122 
ENP,ioos.station.NOAA.NDBC:GBTF1:1,2014-11-14T07:00:00Z,25.1670,-80.8010,1.5,34.22,1111122 
ENP,ioos.station.NOAA.NDBC:GBTF1:1,2014-11-14T09:00:00Z,25.1670,-80.8010,1.5,34.29,1111122 
ENP,ioos.station.NOAA.NDBC:GBTF1:1,2014-11-14T10:00:00Z,25.1670,-80.8010,1.5,34.29,1111122 
ENP,ioos.station.NOAA.NDBC:GBTF1:1,2014-11-14T11:00:00Z,25.1670,-80.8010,1.5,34.29,1111122 
ENP,ioos.station.NOAA.NDBC:GBTF1:1,2014-11-14T13:00:00Z,25.1670,-80.8010,1.5,33.92,1111122 
ENP,ioos.station.NOAA.NDBC:GBTF1:1,2014-11-14T14:00:00Z,25.1670,-80.8010,1.5,33.92,1111122 
ENP,ioos.station.NOAA.NDBC:GBTF1:1,2014-11-14T16:00:00Z,25.1670,-80.8010,1.5,34.0,1111122 
ENP,ioos.station.NOAA.NDBC:GBTF1:1,2014-11-14T17:00:00Z,25.1670,-80.8010,1.5,34.0,1111122 
ENP,ioos.station.NOAA.NDBC:GBTF1:1,2014-11-14T18:00:00Z,25.1670,-80.8010,1.5,33.92,1111122 
ENP,ioos.station.NOAA.NDBC:GBTF1:1,2014-11-14T19:00:00Z,25.1670,-80.8010,1.5,33.85,1111122 
ENP,ioos.station.NOAA.NDBC:GBTF1:1,2014-11-14T21:00:00Z,25.1670,-80.8010,1.5,33.48,1111122 
ENP,ioos.station.NOAA.NDBC:GBTF1:1,2014-11-14T22:00:00Z,25.1670,-80.8010,1.5,33.33,1111122 
ENP,ioos.station.NOAA.NDBC:GBTF1:1,2014-11-15T00:00:00Z,25.1670,-80.8010,1.5,32.02,1111122 
ENP,ioos.station.NOAA.NDBC:GBTF1:1,2014-11-15T01:00:00Z,25.1670,-80.8010,1.5,31.66,1111122 
ENP,ioos.station.NOAA.NDBC:GBTF1:1,2014-11-15T02:00:00Z,25.1670,-80.8010,1.5,32.02,1111122 
ENP,ioos.station.NOAA.NDBC:GBTF1:1,2014-11-15T03:00:00Z,25.1670,-80.8010,1.5,32.75,1111122 
ENP,ioos.station.NOAA.NDBC:GBTF1:1,2014-11-15T05:00:00Z,25.1670,-80.8010,1.5,33.12,1111122 
ENP,ioos.station.NOAA.NDBC:GBTF1:1,2014-11-15T06:00:00Z,25.1670,-80.8010,1.5,33.26,1111122 
ENP,ioos.station.NOAA.NDBC:GBTF1:1,2014-11-15T07:00:00Z,25.1670,-80.8010,1.5,33.26,1111122 
ENP,ioos.station.NOAA.NDBC:GBTF1:1,2014-11-15T09:00:00Z,25.1670,-80.8010,1.5,32.97,1111122 
ENP,ioos.station.NOAA.NDBC:GBTF1:1,2014-11-15T10:00:00Z,25.1670,-80.8010,1.5,32.9,1111122 
ENP,ioos.station.NOAA.NDBC:GBTF1:1,2014-11-15T11:00:00Z,25.1670,-80.8010,1.5,32.82,1111122 
ENP,ioos.station.NOAA.NDBC:GBTF1:1,2014-11-15T12:00:00Z,25.1670,-80.8010,1.5,31.66,1111122 
ENP,ioos.station.NOAA.NDBC:GBTF1:1,2014-11-15T13:00:00Z,25.1670,-80.8010,1.5,30.28,1111122 
ENP,ioos.station.NOAA.NDBC:GBTF1:1,2014-11-15T14:00:00Z,25.1670,-80.8010,1.5,29.92,1111122 
ENP,ioos.station.NOAA.NDBC:GBTF1:1,2014-11-15T15:00:00Z,25.1670,-80.8010,1.5,28.98,1111122 